Regional Weather Roundup
Issued by NWS

Home | Current Version | Previous Version | Graphics & Text | Print | Product List | Glossary On
Versions: 1 2 3 4 5 6 7 8 9 10 11 12 13 14 15 16 17 18 19 20 21 22 23 24 25 26 27 28 29 30 31 32 33 34 35 36 37 38 39 40 41 42 43 44 45 46 47 48 49 50
000
ASUS43 KLSX 021507
RWRMO

WEATHER SUMMARY FOR MISSOURI
NATIONAL WEATHER SERVICE SPRINGFIELD MO
1000 AM CDT MON MAY 02 2016

NOTE: "FAIR" INDICATES FEW OR NO CLOUDS BELOW 12,000 FEET WITH NO
       SIGNIFICANT WEATHER AND/OR OBSTRUCTIONS TO VISIBILITY.
       CURRENT SKY AND/OR WEATHER CONDITIONS ARE NOT AVAILABLE FOR
       CHILLICOTHE AND FARMINGTON.

MOZ001>031-035>038-043-044-053-054-021600-
...NORTHERN AND WESTERN MISSOURI...

CITY           SKY/WX    TMP DP  RH WIND       PRES   REMARKS
KANSAS CTY INT CLOUDY    50  44  80 N6        30.12S
KANSAS C DTWN  CLOUDY    52  45  77 NW7       30.11S
LEE`S SUMMIT   CLOUDY    51  45  79 NW6       30.11S
ST JOSEPH      CLOUDY    52  46  80 N9        30.12F
CHILLICOTHE      N/A     51  48  89 N3        30.12S
KIRKSVILLE     CLOUDY    51  46  83 N8        30.10R

$$
MOZ066>068-077>081-088>096-101>105-021600-
...SOUTHWEST MISSOURI...

CITY           SKY/WX    TMP DP  RH WIND       PRES   REMARKS
SPRINGFIELD    CLOUDY    54  44  69 VRB5      30.09R
JOPLIN         CLOUDY    52  46  80 N6        30.12S
BRANSON        CLOUDY    52  46  82 N5        30.10R

$$
MOZ032>034-039>042-045>050-055>058-069>072-021600-
...CENTRAL MISSOURI...

CITY           SKY/WX    TMP DP  RH WIND       PRES   REMARKS
COLUMBIA       CLOUDY    53  46  77 NW8       30.08R
JEFFERSON CITY CLOUDY    53  44  71 N3        30.09R
ROLLA          CLOUDY    52  46  80 VRB3      30.05F
SEDALIA        CLOUDY    52  46  80 NW8       30.10F
WHITEMAN AFB   CLOUDY    51  48  91 N6        30.09S
WARRENSBURG    CLOUDY    50  45  81 NW6       30.10F
OSAGE BEACH    CLOUDY    54  39  58 CALM      30.09S

$$
MOZ051-052-059>065-021600-
...EAST CENTRAL MISSOURI...

CITY           SKY/WX    TMP DP  RH WIND       PRES   REMARKS
ST LOUIS INTL  CLOUDY    54  46  74 N3        30.06S
SPIRIT OF STL  CLOUDY    54  48  80 NW3       30.06R
ST CHARLES     CLOUDY    54  47  77 CALM      30.05S

$$
MOZ072>076-082>087-097>100-106>115-021600-
...SOUTH CENTRAL AND SOUTHEAST MISSOURI...

CITY           SKY/WX    TMP DP  RH WIND       PRES   REMARKS
CAPE GIRARDEAU CLOUDY    58  49  72 N7        30.04R
POPLAR BLUFF   PTSUNNY   60  49  66 CALM      30.05S
WEST PLAINS    PTSUNNY   58  44  60 CALM      30.08R

$$



USA.gov is the U.S. government's official web portal to all federal, state and local government web resources and services.